Kirsten H — WY7979 — position and weather

sailwx.info

Track history (hours):
 
Tides and Currents Weather Stations Pressure Air Temp Water Temp Dewpoint Dewpoint Depression Visibility Wind Speed Wind Dir Waves Ship Positions

Kirsten H

Owner: BOYER TOWING, KETCHIKAN, AK. More information available from US FCC via Universal Licensing System and Coast Guard Vessel Documentation Center.

Last reported at 2014-Oct-23 20:31 UTC. Time now 2014-Oct-23 20:40 UTC.
Position N 49°17' W 123°45'.

Length 22 m; draft 4 m.

Type: Tow > 200 m length. MMSI: 366623050.

Date/timePositionNaut miles runAvg speedWind from/ knotsBaromVisibWave heightAir tempDewpointWater temp
2014-Oct-23 20:31N 49°17' W 123°45'8 7.8
2014-Oct-23 19:33N 49°21' W 123°54'8 7.5
2014-Oct-23 18:32N 49°26' W 124°03'7 7.1
2014-Oct-23 17:32N 49°30' W 124°11'7 7.3
2014-Oct-23 16:32N 49°34' W 124°21'112 7.3
2014-Oct-23 01:18N 50°37' W 126°45'15 7.4
2014-Oct-22 23:20N 50°46' W 127°02'5 6.3
2014-Oct-22 22:33N 50°49' W 127°09'6 6.5
2014-Oct-22 21:34N 50°52' W 127°18'6 6.5
2014-Oct-22 20:34N 50°56' W 127°26'5 5.4
2014-Oct-22 19:34N 50°59' W 127°33'5 4.9
2014-Oct-22 18:33N 51°02' W 127°39'4 4.2
2014-Oct-22 17:32N 51°05' W 127°44'4 4.2
2014-Oct-22 16:33N 51°08' W 127°49'5 5.2
2014-Oct-22 15:32N 51°13' W 127°51'15 6.4
2014-Oct-22 13:16N 51°27' W 127°52'187 5.5
2014-Oct-21 03:31N 54°09' W 130°26'6 5.9
2014-Oct-21 02:33N 54°14' W 130°30'6 5.6
2014-Oct-21 01:33N 54°19' W 130°34'5 5.4
2014-Oct-21 00:33N 54°25' W 130°37'7 7.2
2014-Oct-20 23:32N 54°32' W 130°42'  
Track history (hours):
 
Tides and Currents Weather Stations Pressure Air Temp Water Temp Dewpoint Dewpoint Depression Visibility Wind Speed Wind Dir Waves Ship Positions

Kirsten H

Owner: BOYER TOWING, KETCHIKAN, AK. More information available from US FCC via Universal Licensing System and Coast Guard Vessel Documentation Center.

Last reported at 2014-Oct-23 20:31 UTC. Time now 2014-Oct-23 20:40 UTC.
Position N 49°17' W 123°45'.

Length 22 m; draft 4 m.

Type: Tow > 200 m length. MMSI: 366623050.

Date/timePositionNaut miles runAvg speedWind from/ knotsBaromVisibWave heightAir tempDewpointWater temp
2014-Oct-23 20:31N 49°17' W 123°45'8 7.8
2014-Oct-23 19:33N 49°21' W 123°54'8 7.5
2014-Oct-23 18:32N 49°26' W 124°03'7 7.1
2014-Oct-23 17:32N 49°30' W 124°11'7 7.3
2014-Oct-23 16:32N 49°34' W 124°21'112 7.3
2014-Oct-23 01:18N 50°37' W 126°45'15 7.4
2014-Oct-22 23:20N 50°46' W 127°02'5 6.3
2014-Oct-22 22:33N 50°49' W 127°09'6 6.5
2014-Oct-22 21:34N 50°52' W 127°18'6 6.5
2014-Oct-22 20:34N 50°56' W 127°26'5 5.4
2014-Oct-22 19:34N 50°59' W 127°33'5 4.9
2014-Oct-22 18:33N 51°02' W 127°39'4 4.2
2014-Oct-22 17:32N 51°05' W 127°44'4 4.2
2014-Oct-22 16:33N 51°08' W 127°49'5 5.2
2014-Oct-22 15:32N 51°13' W 127°51'15 6.4
2014-Oct-22 13:16N 51°27' W 127°52'187 5.5
2014-Oct-21 03:31N 54°09' W 130°26'6 5.9
2014-Oct-21 02:33N 54°14' W 130°30'6 5.6
2014-Oct-21 01:33N 54°19' W 130°34'5 5.4
2014-Oct-21 00:33N 54°25' W 130°37'7 7.2
2014-Oct-20 23:32N 54°32' W 130°42'  

Dump ship's entire track history